Location: Unspecified
(35.7250°N, 0.0000°E)
Time: 03:30:38
(UTC+00:00)

Explorer 7 - Pass Details

Date: 27 June 2019
Orbit: 485 x 680 km, 50.3° (Epoch: 18 July)

Event Time Altitude Azimuth Distance (km) Brightness Sun altitude
Rises 12:27:27 0° 313° (NW) 2,915 10.5 76.5°
Reaches altitude 10° 12:29:49 10° 320° (NW) 2,033 9.8 76.3°
Maximum altitude 12:34:20 44° 33° (NNE) 908 8.4 75.9°
Drops below altitude 10° 12:38:59 10° 106° (ESE) 2,100 9.9 75.4°
Sets 12:41:28 0° 113° (ESE) 3,021 10.6 75.1°
